Zurück zum Katalog

FENGYUN 1C DEB

AktivSSO
NORAD 32191·DEBRIS·🇨🇳 China

Gestartet May 10, 1999 von Taiyuan Satellite Launch Center

Loading…

Nächste Überflüge (nächste 24 Stunden)

TLE

AktuellSource: Space-Track

Epoche: Sep 13, 2026, 10:39 UTC

1 32191U 99025CUM 26256.44438037  .00001797  00000-0  72798-3 0  9995
2 32191  98.6843 315.4570 0092739 107.5102 253.6238 14.26635314684166

Verfolge FENGYUN 1C DEB in Echtzeit mit AllMySat

Download on the App Store